Theta_e
318 317 316 315 315 314 314 313 313 314 314 315 318 319 320 319 318 316 313 312 312 312 312 315 317 312 296 289 289 296 307 304 303 306 302 302 299 296 292 291 291 289 288 287 286 286 284
317 317 316 315 314 314 313 313 313 312 313 313 314 316 317 318 317 314 315 315 313 312 315 316 316 307 292 286 295 294 295 299 298 301 298 300 299 297 291 289 290 289 287 287 287 286 286
317 317 317 315 314 313 312 312 312 312 312 311 311 311 313 315 315 314 313 314 313 314 314 313 311 293 288 287 292 294 294 296 297 298 298 300 301 297 293 288 290 290 287 287 287 287 285
317 317 317 316 315 313 312 312 311 311 311 310 309 309 310 312 313 314 313 314 313 313 313 313 304 291 285 293 295 293 293 297 296 299 298 300 299 295 292 292 289 287 287 286 287 288 285
318 317 317 316 315 314 312 311 310 310 310 309 309 308 309 312 312 312 311 312 312 309 309 305 292 288 283 297 291 292 291 292 293 297 296 301 298 292 292 287 285 284 283 283 285 287 285
319 317 316 316 315 314 313 311 310 309 309 308 308 307 310 311 311 309 310 309 308 301 295 294 291 286 288 286 290 292 290 292 291 294 296 293 291 287 286 286 279 282 282 282 282 284 284
319 318 317 316 316 315 313 311 310 309 308 307 307 308 308 309 309 309 299 291 289 289 287 282 283 283 286 290 292 290 289 290 291 287 284 284 287 283 284 284 283 282 281 281 282 282 281
321 319 317 316 316 315 314 312 310 308 307 305 308 307 309 309 309 306 293 288 287 288 282 287 286 285 287 287 286 288 289 286 285 281 282 283 279 278 283 282 281 280 279 279 280 279 279
321 321 319 317 316 315 314 312 310 308 306 306 308 308 307 308 307 296 290 290 296 291 283 284 286 284 285 286 281 283 286 284 281 279 278 278 277 279 280 279 280 278 278 277 277 277 277
322 321 320 318 316 315 315 313 311 309 306 306 306 307 308 308 297 292 290 294 296 292 282 283 283 284 286 285 281 287 286 283 281 277 277 276 278 278 277 277 277 276 276 277 276 274 272
323 321 320 319 318 317 316 314 311 309 307 307 306 306 305 306 290 290 292 295 296 291 277 282 282 287 286 283 282 283 285 283 278 278 277 275 275 276 276 276 278 276 277 276 275 272 271
323 322 321 319 318 317 316 315 312 310 307 306 307 305 304 297 294 294 297 296 292 285 276 280 282 281 281 281 281 283 281 283 281 278 277 276 277 277 277 278 278 278 275 275 273 272 267
323 322 321 320 318 317 316 316 314 311 307 306 306 305 299 296 290 294 296 292 286 280 282 279 279 280 279 278 279 279 278 275 275 274 273 275 275 277 278 276 278 276 273 271 271 270 271
323 322 321 320 319 318 317 316 314 311 308 307 303 299 295 293 291 294 292 290 280 282 278 280 279 279 277 277 277 278 276 275 276 275 272 271 273 274 277 275 274 274 274 270 265 269 270
323 322 321 320 319 318 317 316 314 312 309 306 299 291 289 290 291 292 292 283 283 284 281 279 278 275 275 277 276 276 274 274 274 274 273 270 272 275 277 277 276 274 271 275 265 267 266
322 321 321 320 319 318 317 316 314 310 307 304 292 290 289 291 290 291 290 287 284 281 281 279 281 277 276 275 275 274 275 275 276 276 275 272 271 274 276 276 276 275 276 270 270 264 266
322 321 321 320 319 318 317 316 313 310 305 303 292 291 290 291 289 289 286 284 281 281 282 280 279 276 275 275 274 273 275 275 276 275 276 274 272 271 273 272 272 272 269 269 269 268 266
321 321 321 320 319 318 317 316 313 308 304 298 293 291 294 292 286 282 282 284 286 280 281 279 278 278 277 275 274 274 276 276 276 276 273 273 268 267 272 270 272 272 269 267 268 266 263
321 321 320 319 318 317 317 315 312 307 301 297 293 290 294 294 284 281 280 281 281 280 279 279 278 279 276 276 274 276 276 277 277 276 274 274 270 267 271 269 270 268 268 266 263 262 263
319 318 319 319 318 317 316 314 310 305 303 299 292 288 287 288 284 284 280 280 281 282 280 281 280 279 275 274 275 273 278 277 277 277 283 279 267 272 271 272 269 266 269 271 271 265 267
318 318 318 318 317 316 316 312 309 305 306 302 295 291 289 282 284 284 286 282 281 280 281 280 278 278 275 276 274 274 276 274 276 279 275 275 269 265 265 265 267 268 270 269 269 272 269
317 317 316 315 315 316 315 311 308 305 307 298 291 288 286 283 283 284 287 284 283 281 279 279 277 278 278 280 280 278 272 271 274 272 269 267 266 262 262 267 266 262 267 270 271 272 272
314 314 313 313 313 315 313 310 307 306 306 296 292 293 292 284 281 284 284 284 285 285 283 282 282 280 277 278 277 273 272 271 277 272 268 268 264 264 264 261 260 265 265 268 267 265 270
312 312 312 313 313 313 313 310 307 307 304 298 294 295 290 282 282 284 284 284 285 285 281 279 280 282 276 274 273 272 268 267 267 271 274 271 272 272 262 260 261 269 258 263 268 264 267
308 309 309 310 311 311 312 310 307 307 303 296 295 293 289 283 283 284 284 282 284 282 280 279 276 276 277 279 277 269 267 265 262 265 268 270 273 268 262 255 265 267 262 262 264 266 262
306 307 308 309 310 310 311 309 307 306 303 296 293 293 290 286 284 286 284 285 283 281 277 274 276 278 280 279 278 271 267 266 263 260 266 269 270 269 260 258 259 265 262 255 257 263 256
306 307 308 309 310 310 310 309 307 306 304 297 290 290 292 285 279 282 284 284 283 279 274 270 272 273 277 276 274 272 270 261 264 261 259 262 264 266 266 265 263 264 260 255 261 265 258
306 307 311 312 312 310 310 309 307 304 302 296 288 287 291 282 277 276 276 277 276 278 279 269 271 271 273 274 272 266 261 262 260 260 260 262 263 260 266 263 261 262 260 266 262 258 258
306 308 310 310 310 311 310 307 306 304 302 297 289 286 284 280 274 276 275 275 274 275 276 270 272 269 273 269 264 263 263 259 260 265 259 266 267 266 269 267 260 262 261 259 259 261 261
Wind_Speed
6 5 3 2 2 2 3 5 5 5 5 5 5 6 7 7 7 7 7 7 7 7 8 10 10 7 4 8 3 7 20 14 4 2 4 2 4 4 6 5 3 4 2 4 4 7 6
7 6 5 3 2 1 2 4 4 4 5 4 4 4 4 4 5 4 5 8 8 8 8 9 9 3 4 6 4 8 10 6 6 4 5 5 3 5 7 4 4 2 5 5 2 3 3
8 7 7 5 4 2 1 3 3 3 4 4 4 3 2 2 1 1 5 8 8 8 8 7 7 4 10 4 3 8 8 3 5 2 3 3 3 6 6 5 5 5 5 2 1 1 2
9 9 8 7 6 4 2 2 2 3 4 4 3 2 1 0 1 2 5 7 7 9 6 4 5 5 5 2 2 6 9 2 7 5 4 5 8 9 5 5 4 4 4 2 0 1 1
11 10 9 8 7 5 4 2 1 2 3 3 3 2 1 1 2 4 6 7 7 4 5 3 6 6 3 6 6 6 5 4 6 2 6 3 7 5 3 4 4 7 1 2 3 1 2
12 11 10 9 8 7 5 4 1 2 3 3 3 2 2 1 2 5 7 3 5 5 7 2 4 4 7 4 5 6 4 4 5 2 4 8 6 4 4 4 2 1 1 1 3 1 0
14 13 12 11 10 8 7 5 3 1 2 3 2 3 2 2 4 6 4 3 5 6 12 5 1 3 2 7 3 7 5 6 4 9 4 5 6 3 2 2 3 6 3 2 3 1 2
15 14 13 12 11 10 8 6 4 2 1 2 1 2 3 3 4 4 4 5 2 4 7 5 2 3 1 2 4 10 8 5 5 4 3 6 3 2 2 3 3 2 2 4 3 1 2
15 15 14 14 12 11 10 8 5 3 2 2 3 1 3 3 3 5 4 5 2 0 6 4 2 3 4 5 3 8 7 3 5 5 5 5 2 3 1 2 2 1 1 1 3 5 0
17 16 15 15 15 13 11 9 7 5 4 2 2 3 3 1 5 1 3 1 2 1 5 5 3 4 2 1 5 2 3 2 6 4 3 6 2 2 3 3 2 2 1 1 1 3 3
18 18 17 16 15 13 12 12 9 6 4 2 0 3 8 2 7 3 1 2 1 3 3 2 3 2 2 5 0 7 2 5 4 3 1 0 2 4 4 1 2 1 1 2 2 3 3
20 19 19 17 16 15 13 13 11 8 4 2 1 4 3 4 4 1 1 1 3 5 5 1 2 4 2 6 4 5 4 7 4 4 6 3 1 3 2 1 2 3 1 4 3 2 2
22 22 20 19 17 16 14 13 12 11 7 8 8 9 5 2 4 1 2 3 5 3 2 1 1 3 3 4 4 5 4 5 3 4 3 2 3 2 2 1 1 2 4 4 5 4 3
22 21 19 19 19 18 16 15 13 13 11 6 5 5 6 2 1 2 3 5 2 2 2 0 1 1 3 4 2 4 2 3 5 4 4 3 3 1 4 1 2 2 3 6 5 3 4
22 22 21 22 21 20 19 18 16 13 12 10 4 2 3 3 3 1 5 3 5 5 5 7 1 2 1 1 0 1 3 2 2 1 6 4 3 0 2 2 2 0 1 3 5 1 2
23 23 24 24 23 22 21 20 18 16 14 12 2 2 1 2 2 3 5 4 4 1 5 3 3 0 3 1 1 2 2 1 1 0 0 3 3 0 0 2 3 2 2 3 3 2 6
24 26 26 25 25 24 23 23 23 20 16 9 1 2 2 2 2 5 4 5 3 1 1 3 4 4 2 3 2 1 2 1 0 2 3 4 4 2 0 5 6 2 2 4 4 4 5
23 26 27 26 27 25 25 25 26 25 20 7 3 3 1 2 4 1 4 5 4 3 1 2 3 3 5 6 3 3 5 3 0 2 4 1 5 2 5 2 2 1 6 5 6 6 1
21 25 28 29 27 25 25 27 30 31 22 7 5 2 2 2 5 3 2 3 2 3 3 3 2 1 1 6 2 3 4 1 1 4 6 6 1 3 6 4 4 3 4 4 4 3 9
12 14 17 26 24 22 23 28 33 33 24 5 4 4 2 3 1 6 6 4 5 2 3 3 3 2 4 2 3 4 4 1 3 1 4 1 2 7 8 6 6 4 4 5 5 4 6
12 9 13 14 15 17 24 33 34 35 26 4 1 2 2 5 4 5 4 7 6 5 1 2 2 3 6 4 2 3 2 2 3 4 3 3 5 1 5 5 4 8 7 9 14 15 10
13 13 10 10 9 6 21 30 33 33 20 3 6 6 3 2 4 6 1 6 9 4 7 3 4 2 3 5 5 6 6 4 6 2 3 2 3 3 5 6 3 6 13 19 19 18 18
6 11 12 12 11 8 17 26 31 31 14 4 1 2 5 1 2 4 5 6 9 10 1 2 6 5 3 1 3 4 4 4 3 7 5 4 4 3 7 3 6 10 12 15 6 4 12
7 9 9 12 13 11 21 27 30 31 7 4 3 3 5 3 3 4 5 3 5 4 6 2 3 4 3 7 8 5 8 7 7 5 5 5 4 2 5 6 4 5 2 1 8 5 12
9 9 10 10 11 12 19 27 30 30 7 4 2 3 4 4 3 4 6 5 7 5 4 4 4 3 7 4 2 4 4 5 4 6 5 5 2 1 2 3 11 6 2 6 7 8 6
8 8 9 10 11 12 18 29 29 27 12 5 2 2 5 8 6 6 6 4 5 3 3 3 3 3 1 1 2 2 5 3 3 4 4 2 3 3 2 3 8 6 3 3 2 8 3
11 10 9 12 15 15 18 25 26 23 13 6 2 4 5 6 1 2 3 6 6 5 4 3 4 1 2 3 3 5 5 3 3 6 5 4 1 10 7 6 12 5 4 3 6 7 1
11 8 7 7 14 21 21 24 26 22 16 5 2 3 4 5 2 5 5 5 3 2 5 5 4 2 2 4 4 4 3 5 1 4 8 10 10 6 4 5 14 7 3 7 2 1 2
12 9 8 12 13 17 22 26 25 22 14 7 4 2 3 10 4 2 4 3 4 2 6 2 3 5 6 5 0 4 2 2 4 6 3 4 8 7 12 10 1 2 2 1 2 2 2
Wind_Direction
191 187 171 144 99 83 80 72 65 54 71 82 80 86 93 101 97 87 63 38 21 8 354 351 348 348 96 51 29 307 329 330 358 26 43 65 67 112 106 107 80 76 126 63 97 84 87
200 191 186 173 150 118 76 70 62 57 62 72 87 88 91 107 115 79 30 14 4 353 343 342 348 7 72 76 299 321 328 333 27 24 16 28 115 97 92 66 57 98 95 123 55 97 120
205 201 195 184 179 153 84 56 49 45 58 54 53 68 84 83 113 30 355 352 349 341 333 337 5 76 58 160 336 326 346 342 348 16 72 12 114 71 136 98 162 146 82 114 33 63 65
206 208 202 195 191 173 163 91 41 39 40 41 42 41 34 286 300 322 334 337 336 337 337 348 30 68 86 297 280 7 341 335 359 16 91 111 82 91 61 115 50 70 68 53 232 169 25
210 210 207 203 196 192 183 160 94 44 38 32 21 42 20 14 333 327 330 328 338 338 17 25 37 85 82 329 27 325 25 341 306 18 33 67 67 85 71 80 43 19 57 13 337 55 92
214 213 212 205 206 202 193 176 131 39 41 26 35 59 81 10 334 331 333 328 1 38 357 42 65 53 11 323 309 336 334 347 33 344 29 40 51 75 42 66 232 187 75 280 274 344 269
210 215 213 209 206 205 201 191 165 101 40 33 67 77 56 16 352 353 32 32 20 355 36 86 298 116 321 302 279 357 357 343 23 49 55 7 69 63 3 83 119 118 128 230 239 51 256
207 210 215 213 208 205 205 197 182 147 73 55 102 77 29 15 27 68 72 82 101 162 81 27 51 52 23 318 17 347 5 64 51 81 353 31 73 305 111 96 111 116 124 254 270 149 202
203 209 208 213 211 206 204 199 193 160 70 70 101 56 353 348 101 45 75 125 332 156 83 5 37 39 319 34 72 329 15 27 64 62 27 103 78 337 81 48 72 18 241 313 291 326 275
201 208 208 208 209 204 205 197 194 179 145 127 28 10 346 234 53 202 56 353 350 320 82 341 334 354 350 75 47 289 16 89 35 107 78 76 328 79 67 79 24 274 318 160 318 38 280
198 203 207 203 206 204 197 196 188 190 164 160 154 84 61 133 143 78 134 333 329 58 12 13 340 289 21 82 144 355 344 26 86 103 110 165 45 44 69 44 331 177 6 71 76 101 38
199 204 204 202 198 200 195 195 185 173 167 130 164 164 107 51 61 81 323 42 56 45 260 74 307 351 41 17 26 320 35 50 140 89 47 98 75 55 114 69 44 141 123 60 63 90 24
203 201 201 198 195 197 190 190 177 159 144 102 94 84 68 52 148 272 113 61 31 143 15 100 55 35 87 8 37 28 26 28 81 69 24 74 16 12 40 105 21 29 41 330 348 7 249
205 202 196 197 195 192 188 183 177 161 148 137 80 77 44 62 328 162 74 60 205 119 207 134 119 86 94 355 45 6 79 61 30 67 95 118 321 355 338 87 156 69 135 147 244 266 281
203 198 198 198 194 191 186 178 169 152 133 123 139 28 54 360 345 75 82 79 207 186 148 148 57 106 54 91 99 89 52 130 170 123 137 124 246 12 26 14 20 279 97 163 94 120 360
210 204 200 198 193 189 185 174 165 146 136 152 124 87 11 321 22 69 83 215 183 149 127 143 171 306 160 234 148 68 172 293 143 335 177 219 16 173 350 129 16 134 177 76 21 340 295
211 208 204 197 194 188 185 178 163 148 148 146 189 116 248 18 87 53 169 198 158 137 147 154 167 132 148 182 197 145 123 289 124 119 103 137 102 248 37 202 175 133 7 35 111 139 194
218 209 204 201 194 191 187 174 162 153 146 104 185 173 252 123 73 17 164 171 126 168 117 120 107 111 155 170 168 185 182 182 212 141 133 35 136 212 234 31 351 143 187 151 135 246 200
219 215 209 202 194 190 186 169 158 157 152 139 143 111 302 106 150 183 193 109 137 136 178 151 130 97 143 168 102 194 166 58 173 159 167 193 276 355 324 12 2 195 219 137 115 87 206
197 215 220 197 189 185 181 167 159 159 165 113 132 120 19 68 82 144 149 174 150 42 102 85 131 95 91 112 16 194 186 84 24 61 93 116 120 187 205 208 121 162 217 207 154 161 245
201 207 197 200 183 189 182 163 162 161 168 136 103 167 155 184 220 165 150 135 135 174 65 149 27 196 161 130 93 215 135 141 46 353 49 100 221 156 282 227 173 198 192 206 209 218 215
171 155 157 143 140 180 171 164 161 163 161 103 133 136 47 49 66 109 318 202 151 173 138 215 165 167 160 157 184 198 139 192 204 39 114 359 244 106 284 299 178 235 223 230 230 238 251
169 165 165 157 137 143 153 161 160 162 168 123 167 101 102 136 102 114 201 179 194 136 144 86 151 124 139 154 119 116 90 72 130 154 177 140 129 54 270 324 316 286 224 196 193 220 213
179 160 164 153 152 159 167 164 165 171 166 112 172 127 107 143 129 203 141 121 154 175 138 75 63 116 132 106 107 79 59 55 54 39 19 144 141 177 273 352 300 259 356 123 215 224 228
182 180 192 163 158 162 173 164 169 178 122 99 146 187 115 112 145 122 130 100 83 66 83 89 36 356 146 154 87 5 338 15 10 27 10 14 134 245 226 218 305 308 258 157 166 275 228
160 188 206 186 184 181 172 170 172 174 140 96 97 338 90 118 218 133 130 158 134 121 97 72 16 325 237 100 130 227 239 226 300 8 12 72 54 143 98 191 240 240 249 183 149 288 191
171 186 210 220 205 189 171 172 166 164 138 103 100 28 86 106 336 13 147 157 115 95 98 138 172 165 334 141 157 197 238 159 233 177 173 120 181 217 213 250 280 231 175 142 90 255 102
169 177 201 156 184 177 169 167 155 144 126 90 109 0 97 96 48 12 5 130 103 140 154 161 98 307 77 179 169 214 152 221 111 184 183 168 158 195 165 221 270 148 97 178 194 43 149
167 165 145 138 135 154 156 156 155 141 127 110 96 37 29 70 97 43 78 50 26 53 124 185 159 156 170 102 55 94 193 119 172 252 326 245 193 183 191 215 219 176 73 149 177 144 194